User: anonymous   Login
Location: Theydon Bois
(51.6750°N, 0.1050°E)
Time: 02:26:52
(UTC+01:00)
Language:

Cosmos 1076 Rocket - Orbit

View from above orbital plane
View from above orbital plane
View from above satellite
View from above satellite

Ground track
Ground track

The orbit data is extracted from the following two-line orbital elements,

1 11267U 79011B   17292.56907103 +.00000113 +00000-0 +93213-5 0  9995
2 11267 082.5221 112.0633 0017082 170.9838 189.1690 14.88862255072775
Epoch (UTC): 19 October 2017 13:39:27
Eccentricity: 0.0017082
inclination: 82.5221°
perigee height: 589 km
apogee height: 613 km
right ascension of ascending node: 112.0633°
argument of perigee: 170.9838°
revolutions per day: 14.88862255
mean anomaly at epoch: 189.1690°
orbit number at epoch: 7277

The dashed part of the orbit path shows where the satellite is in the earth's shadow,  

DLR